{"data":{"norad_id":50469,"epoch":"2026-09-19T23:12:34.680384Z","epoch_age_seconds":73117,"freshness":"FRESH","line1":"1 50469U 21132A   26262.96706806 -.00000077  00000+0 -23167-3 0  9990","line2":"2 50469  87.9197 347.0476 0002164 101.0417 259.0958 13.17650586230561","mean_motion":13.17650586,"eccentricity":0.0002164,"inclination_deg":87.9197,"raan_deg":347.0476,"arg_perigee_deg":101.0417,"mean_anomaly_deg":259.0958,"bstar":-0.00023167,"rev_number":23056,"period_min":109.2854217423,"perigee_km":1192.0686368382,"apogee_km":1195.345731001,"semimajor_km":7571.8441839196,"source":"CELESTRAK","updated_at":"2026-09-20T09:00:44.676361Z"}}